Tracking 18843 objects as of 21-November-2017
HD Live streaming from Space Station
objects crossing your sky now

ATS 6

Track ATS 6 now!
ATS 6 is classified as:


NORAD ID: 7318
Int'l Code: 1974-039A
Perigee: 35,192.3 km
Apogee: 35,450.2 km
Inclination: 9.3 °
Period: 1,412.0 minutes
Semi major axis: 41692 km
RCS: 6.3095 m2 (large)
Launch date: May 30, 1974
Source: United States (US)
Launch site: AIR FORCE EASTERN TEST RANGE (AFETR)
aabbcc
Your satellite tracking list
Your tracking list is empty




NASA's NSSDC Master Catalog

Two Line Element Set (TLE):
1  7318U 74039A   17324.51616216 -.00000201 +00000-0 +00000-0 0  9991
2  7318 009.3061 306.1318 0030932 236.0477 312.2062 01.01981279090078
Source of the keplerian elements: AFSPC